Temperature
8 7 7 7 7 6 6 6 6 6 6 5 5 5 5 5 5 5 5 4 4 4 4 4 4 4 3 3 3 2 2 1 1 1 2 2 2 2 2 2 2 2 3
7 7 7 7 7 6 6 6 6 5 5 5 5 5 5 5 4 4 4 4 4 4 4 4 3 3 3 3 2 2 2 1 1 1 1 1 2 2 2 2 2 2 2
7 7 7 7 6 6 6 6 5 5 5 5 5 5 4 4 4 4 4 4 4 4 3 3 3 3 3 2 2 2 1 1 1 0 1 1 1 1 1 1 2 2 2
6 6 6 6 6 6 5 5 5 5 4 4 4 4 4 4 4 4 3 3 3 3 3 3 3 2 2 2 1 1 1 1 1 0 0 0 1 1 1 1 1 1 2
6 6 6 6 6 5 5 5 5 4 4 4 4 4 4 3 3 3 3 3 3 3 3 3 2 2 2 1 1 1 1 0 0 -0 -0 0 0 0 0 0 0 1 1
5 5 5 5 5 5 5 5 4 4 4 4 4 4 3 3 3 3 3 3 2 2 2 2 2 2 1 1 1 1 0 0 -0 -0 -0 -0 -0 -0 -0 -0 -0 -0 0
5 5 5 5 5 4 4 4 4 4 4 3 3 3 3 3 3 2 2 2 2 2 2 2 1 1 1 1 1 1 0 0 -0 -0 -1 -1 -1 -1 -1 -1 -0 -0 -0
4 4 4 4 4 4 4 4 3 3 3 3 3 3 3 3 2 2 2 2 2 2 2 1 1 1 1 0 0 0 0 0 -0 -0 -1 -1 -1 -1 -1 -1 -1 -0 -0
4 4 4 4 3 3 3 3 3 3 3 3 3 3 2 2 2 2 2 2 2 2 1 1 0 0 0 -0 -0 -0 -0 -0 -0 -0 -1 -1 -1 -1 -1 -1 -1 -1 -0
3 3 3 3 3 3 3 3 3 2 2 2 2 2 2 2 2 2 1 1 1 1 1 1 0 -0 -0 -1 -1 -1 -1 -1 -0 -0 -0 -0 -0 -1 -1 -1 -1 -1 -1
3 3 3 2 2 2 2 2 2 2 2 2 2 2 2 2 1 1 1 0 0 0 0 0 0 -0 -0 -1 -1 -1 -1 -1 -1 -1 -1 -1 -1 -1 -1 -1 -1 -1 -1
2 2 2 2 2 2 2 2 2 2 2 1 1 1 1 1 1 1 1 0 -0 -0 -0 -0 -1 -1 -1 -1 -1 -1 -1 -1 -1 -1 -1 -1 -1 -1 -1 -1 -1 -1 -1
2 2 1 1 1 1 1 1 1 1 1 1 1 0 1 0 0 0 -0 -0 -1 -1 -1 -1 -1 -1 -1 -1 -1 -1 -1 -1 -2 -2 -2 -2 -2 -2 -2 -2 -2 -1 -1
1 1 1 1 1 1 1 1 1 0 0 0 -0 -0 -0 -0 -0 -0 -1 -1 -1 -1 -1 -1 -1 -1 -2 -2 -2 -2 -2 -2 -2 -3 -3 -3 -2 -2 -2 -2 -2 -2 -2
1 1 0 0 0 0 0 0 -0 -0 -0 -1 -1 -1 -1 -1 -1 -1 -1 -1 -1 -2 -2 -2 -2 -2 -2 -2 -2 -2 -2 -2 -3 -3 -3 -3 -3 -3 -3 -2 -2 -2 -2
-0 -0 -0 -0 -0 -0 -0 -0 -1 -1 -1 -1 -1 -2 -2 -2 -2 -2 -2 -2 -2 -2 -2 -2 -2 -2 -3 -3 -3 -2 -3 -3 -3 -3 -3 -3 -3 -3 -3 -3 -2 -2 -2
-1 -1 -1 -1 -1 -1 -1 -1 -1 -1 -1 -2 -2 -2 -2 -2 -2 -2 -2 -2 -2 -2 -2 -3 -3 -3 -3 -3 -3 -3 -3 -3 -3 -3 -3 -3 -3 -3 -3 -3 -3 -3 -3
-1 -1 -1 -2 -2 -2 -1 -1 -2 -2 -2 -2 -2 -2 -2 -2 -2 -2 -2 -2 -2 -3 -3 -3 -3 -4 -4 -4 -4 -4 -3 -3 -3 -3 -3 -3 -3 -3 -3 -3 -3 -3 -3
-2 -2 -2 -2 -2 -2 -2 -2 -2 -2 -3 -3 -2 -2 -2 -3 -3 -3 -3 -3 -3 -3 -3 -4 -4 -4 -4 -4 -4 -4 -4 -4 -4 -3 -3 -3 -3 -3 -3 -3 -3 -3 -3
-3 -3 -3 -3 -3 -3 -3 -3 -3 -3 -3 -3 -3 -3 -3 -3 -3 -3 -3 -3 -4 -4 -4 -4 -4 -4 -4 -4 -4 -4 -4 -4 -4 -3 -4 -3 -3 -3 -3 -3 -3 -3 -3
-3 -3 -3 -3 -3 -3 -3 -3 -3 -4 -4 -4 -4 -4 -4 -4 -4 -4 -4 -4 -4 -4 -4 -4 -4 -4 -4 -4 -4 -4 -4 -4 -4 -4 -4 -4 -4 -4 -4 -4 -4 -4 -4
-4 -4 -4 -4 -4 -4 -4 -4 -4 -4 -4 -4 -4 -4 -4 -5 -5 -4 -5 -5 -4 -5 -5 -5 -4 -4 -4 -4 -4 -4 -4 -4 -4 -4 -4 -4 -4 -4 -4 -4 -4 -4 -4
-4 -4 -4 -4 -4 -4 -4 -4 -5 -5 -5 -5 -5 -5 -5 -5 -5 -5 -5 -5 -5 -5 -5 -5 -5 -5 -4 -4 -4 -4 -4 -4 -4 -4 -4 -4 -4 -4 -4 -4 -4 -4 -4
-5 -5 -5 -5 -5 -5 -5 -5 -5 -5 -5 -5 -5 -5 -5 -5 -5 -5 -5 -5 -5 -5 -5 -5 -5 -5 -4 -4 -4 -4 -4 -4 -4 -4 -4 -4 -4 -4 -4 -4 -4 -4 -4
-5 -5 -5 -5 -5 -5 -5 -5 -5 -5 -5 -5 -5 -6 -6 -6 -6 -6 -6 -6 -6 -5 -5 -5 -5 -5 -5 -4 -4 -4 -4 -4 -4 -4 -4 -4 -4 -4 -4 -4 -4 -4 -4
-6 -6 -6 -6 -6 -6 -6 -5 -5 -6 -5 -6 -6 -6 -6 -6 -6 -6 -6 -6 -6 -6 -5 -5 -5 -5 -5 -5 -4 -4 -4 -4 -4 -4 -4 -4 -4 -4 -4 -4 -4 -4 -4
Wind_Speed
6 5 5 5 4 4 4 4 4 3 3 3 4 4 4 4 4 4 5 5 5 5 5 5 6 6 5 4 4 4 5 6 10 11 9 9 9 10 10 8 9 9 10
5 5 4 4 4 3 3 3 3 3 3 4 3 4 4 5 4 5 6 5 6 6 6 6 7 6 6 5 5 5 6 6 8 12 11 9 9 9 9 9 9 9 8
4 4 4 3 3 3 4 3 3 3 3 3 3 4 4 5 5 5 5 6 6 6 6 6 7 6 7 6 6 6 6 7 7 9 11 9 8 8 8 9 9 7 9
3 3 3 3 3 3 3 3 2 2 2 3 3 4 4 4 4 5 5 5 6 6 6 6 7 7 8 8 7 7 7 7 7 8 9 9 9 8 7 8 9 6 7
3 3 3 2 2 2 1 2 1 1 2 3 3 4 4 4 4 4 4 5 5 6 6 6 7 9 10 9 8 7 7 6 7 8 9 9 9 8 8 6 8 8 7
3 2 2 2 1 1 1 1 1 1 2 2 2 3 4 4 7 7 5 4 5 5 7 7 7 8 10 12 13 12 10 8 8 8 8 9 10 9 8 8 8 8 7
2 1 1 1 1 1 1 0 1 1 1 2 3 3 4 5 8 8 7 5 4 5 6 6 7 8 10 7 10 12 11 13 12 10 10 10 10 9 9 9 8 8 8
2 1 1 1 1 0 1 0 1 1 2 2 3 4 4 6 8 8 8 5 4 5 5 6 7 8 8 8 7 7 8 8 10 8 7 9 9 8 8 7 8 7 6
2 1 1 1 1 1 0 1 1 1 2 2 3 3 4 6 8 8 8 4 4 5 5 6 7 7 11 12 8 8 9 8 10 11 12 11 12 12 8 5 5 5 6
1 1 1 1 1 0 0 1 1 1 2 2 3 3 3 5 7 8 7 3 4 5 6 6 8 9 11 12 8 7 9 8 8 8 8 8 7 7 8 5 4 4 4
1 2 2 2 1 1 1 1 1 1 2 2 3 4 3 4 7 8 8 4 4 5 6 6 6 11 12 12 10 6 8 9 6 6 5 5 4 4 5 5 4 3 4
2 3 2 2 2 2 2 2 1 1 2 2 3 4 3 4 6 7 8 7 7 5 5 5 7 11 12 11 9 8 10 8 4 4 4 4 4 5 5 5 4 4 3
3 3 2 2 2 2 1 2 2 1 1 2 2 3 4 4 5 8 8 8 9 5 5 8 10 10 10 7 8 9 8 5 4 4 4 5 4 4 4 4 4 4 3
3 2 2 2 2 2 2 1 1 1 2 2 2 3 4 4 4 4 4 5 6 6 5 7 9 8 7 7 7 6 5 4 4 4 4 4 4 4 4 4 3 4 3
2 2 2 2 2 2 2 2 2 1 1 2 2 2 3 4 6 8 6 4 4 4 5 4 4 4 5 5 5 5 5 4 4 4 4 4 4 4 4 4 3 2 2
2 2 2 2 2 1 2 3 5 4 4 3 3 3 4 5 8 8 8 8 8 7 5 3 4 4 5 5 6 6 5 5 4 4 4 3 4 4 4 3 2 2 2
2 1 1 2 2 2 2 2 3 4 6 6 5 6 6 7 8 7 7 7 7 6 4 3 4 4 5 5 5 5 5 5 5 4 4 3 3 3 3 3 3 2 2
2 2 2 1 1 1 1 1 1 2 4 4 6 7 8 8 8 8 7 6 5 5 3 3 4 4 4 5 5 5 5 5 4 4 4 3 3 3 2 2 2 2 2
2 2 2 1 1 2 2 2 2 2 2 3 4 5 8 8 8 8 7 4 3 4 4 4 4 4 4 4 5 5 5 5 4 4 3 4 3 2 2 2 2 3 2
2 3 3 2 2 2 2 2 2 2 2 3 3 4 5 5 4 5 5 4 3 4 4 4 4 4 4 4 5 4 4 4 4 3 3 3 3 2 2 2 2 2 2
2 2 4 3 2 2 2 2 2 2 2 3 3 4 6 4 4 4 4 4 4 4 5 5 5 5 4 4 4 4 5 4 4 3 3 3 3 2 2 2 1 1 1
1 1 2 2 2 2 2 2 2 2 3 3 3 4 7 4 3 4 4 4 4 4 4 4 4 4 4 4 4 4 4 4 4 3 3 3 2 2 1 1 1 1 1
1 2 2 2 2 3 3 2 2 2 3 3 4 4 4 4 4 4 4 4 4 5 5 5 5 5 5 5 5 4 4 4 4 3 3 2 2 1 1 1 0 0 1
2 2 2 2 2 2 2 2 3 3 3 3 4 4 4 4 4 5 4 4 4 5 5 5 5 6 7 7 6 5 5 4 4 3 3 2 2 1 1 0 0 0 1
2 1 1 1 2 2 2 3 3 3 4 4 4 4 4 4 4 4 4 4 5 5 6 6 5 6 7 8 7 6 6 6 4 2 1 1 1 1 0 0 0 1 1
1 1 1 1 2 2 2 3 3 4 4 4 4 4 4 4 4 4 4 4 5 5 6 6 7 7 8 7 7 7 7 5 3 2 0 0 0 1 1 1 2 2 2
Wind_Direction
185 185 182 190 193 193 205 217 226 234 236 244 252 259 263 266 265 261 266 267 265 270 273 272 274 273 274 273 268 268 268 267 280 292 294 300 301 303 306 305 301 294 293
185 179 181 184 184 194 211 222 226 229 238 246 252 260 266 268 263 260 266 270 268 271 274 277 279 284 279 277 272 270 272 268 273 288 296 300 299 300 300 303 303 300 294
166 164 167 179 188 206 218 226 225 224 245 258 257 263 268 269 262 259 259 266 267 267 270 273 279 281 283 282 276 275 276 279 274 282 292 297 299 302 305 304 301 299 298
154 160 173 194 202 212 219 224 224 224 244 262 268 270 273 271 267 264 264 270 274 274 271 270 273 274 277 280 280 277 281 284 286 288 292 297 299 302 302 305 310 311 308
151 167 193 207 201 193 208 217 218 236 265 271 279 285 285 278 275 280 275 277 281 286 286 282 282 286 289 289 289 287 286 287 291 291 293 298 299 307 306 304 305 310 307
158 185 189 178 170 170 190 196 231 273 279 289 289 288 290 294 301 301 301 285 282 285 292 295 293 289 295 297 295 292 289 287 288 288 292 295 297 299 300 301 302 307 305
140 159 158 156 154 169 167 142 258 273 283 293 291 292 291 296 306 306 304 302 290 287 289 295 301 303 304 293 294 298 296 292 288 284 285 287 292 296 297 297 297 297 291
108 100 104 114 124 133 126 186 285 293 290 292 298 299 299 302 311 312 316 307 295 292 290 290 295 300 302 304 302 303 297 295 293 290 282 287 294 295 289 286 289 293 291
102 90 82 105 113 98 174 273 297 319 318 314 312 307 305 306 313 317 320 307 304 301 300 302 302 298 303 311 312 306 304 303 306 303 300 300 301 302 304 308 307 307 302
123 122 91 92 99 106 265 299 342 335 312 320 325 323 313 308 316 321 323 311 308 310 310 306 307 309 310 315 312 307 307 308 311 315 315 316 314 315 320 314 299 294 295
91 75 63 60 68 58 23 22 10 356 347 336 330 327 323 321 324 325 326 324 307 308 309 311 310 316 317 319 320 313 307 312 315 317 321 326 332 335 335 333 322 294 287
69 59 44 36 34 39 51 21 19 13 353 339 336 330 327 326 331 328 331 332 326 313 307 310 315 321 322 325 329 326 327 329 324 325 333 336 334 331 329 331 330 321 301
70 55 38 32 36 44 54 30 10 11 350 331 332 328 328 329 328 332 333 334 334 329 314 318 325 332 336 335 338 340 342 341 334 334 333 327 323 317 318 323 325 327 337
76 55 40 41 28 22 27 31 16 344 329 322 326 323 324 326 324 324 324 328 336 335 328 327 334 341 342 342 346 348 347 341 338 330 326 322 324 327 329 325 321 330 355
67 53 39 35 32 21 21 23 356 309 289 304 302 301 312 319 323 328 330 327 325 322 327 332 340 344 352 353 352 352 348 347 347 338 330 328 331 336 335 336 335 345 5
63 45 32 25 20 22 25 10 13 10 360 351 338 324 313 316 324 333 337 340 342 340 343 345 345 347 346 344 344 344 343 342 338 334 329 325 328 332 334 340 345 355 357
71 44 30 28 23 14 10 8 355 359 9 8 360 352 345 339 340 341 342 344 351 358 4 353 347 343 338 337 337 335 330 331 333 334 333 330 327 329 332 340 349 2 3
44 38 42 32 19 6 354 349 349 346 345 348 351 356 355 351 349 350 353 0 3 6 1 347 338 335 331 328 328 326 325 328 333 334 336 333 329 329 336 342 346 354 358
40 37 43 35 22 12 1 2 3 356 347 340 341 348 355 354 355 1 5 9 353 347 343 337 332 327 323 321 320 318 318 322 326 329 332 333 329 331 339 341 351 8 13
33 33 31 35 30 21 10 6 3 358 351 347 344 338 342 349 355 354 358 355 350 339 334 330 327 322 321 319 317 317 320 324 327 328 330 331 331 333 334 340 5 26 30
27 26 25 28 24 14 5 359 354 353 349 341 332 332 339 343 342 341 343 343 338 333 329 326 322 320 318 317 317 318 319 320 319 322 324 323 324 329 335 343 8 26 33
40 25 16 18 14 14 8 359 349 341 334 328 325 332 338 344 339 335 334 332 331 327 322 319 318 318 316 313 311 311 313 314 314 315 316 317 318 323 328 339 9 24 38
43 31 28 22 16 7 3 350 344 335 330 329 329 332 334 335 334 331 328 328 328 326 328 326 321 320 322 319 312 301 296 296 296 292 294 300 300 299 300 306 357 41 33
40 36 28 15 9 4 348 338 336 335 332 329 330 328 326 325 327 326 327 326 326 325 329 328 321 316 317 321 321 313 303 295 291 283 278 272 276 278 268 273 353 97 83
30 18 13 5 351 342 338 337 337 335 333 332 329 327 326 327 327 327 329 330 328 327 327 327 326 323 322 321 321 319 314 310 303 283 276 260 260 259 220 148 97 92 84
16 10 0 349 342 338 336 334 332 330 329 328 327 327 325 326 325 327 330 331 331 328 327 328 328 329 328 327 323 324 326 327 327 316 336 160 172 121 103 94 91 88 92
Height
1458 1460 1462 1463 1465 1466 1466 1467 1467 1467 1466 1466 1465 1464 1463 1462 1461 1460 1459 1457 1455 1453 1452 1450 1448 1446 1444 1442 1441 1439 1437 1435 1428 1421 1419 1416 1413 1410 1406 1404 1401 1399 1396
1455 1457 1458 1460 1461 1462 1463 1463 1463 1463 1463 1462 1461 1460 1459 1458 1457 1455 1454 1452 1451 1449 1447 1445 1443 1441 1439 1437 1435 1433 1431 1429 1425 1418 1413 1411 1408 1405 1402 1398 1396 1393 1391
1452 1454 1455 1456 1457 1458 1459 1459 1460 1459 1459 1458 1457 1456 1455 1453 1452 1451 1450 1448 1446 1444 1442 1440 1439 1437 1434 1432 1430 1428 1425 1423 1420 1416 1410 1407 1403 1400 1397 1393 1390 1387 1385
1450 1451 1452 1453 1454 1455 1455 1456 1456 1456 1455 1454 1453 1452 1451 1449 1448 1446 1445 1443 1442 1440 1438 1436 1434 1432 1430 1427 1425 1423 1420 1418 1415 1411 1406 1402 1399 1396 1393 1389 1384 1382 1379
1447 1448 1449 1450 1451 1452 1452 1452 1452 1452 1451 1451 1449 1448 1447 1445 1444 1442 1440 1439 1437 1435 1433 1432 1430 1428 1425 1423 1421 1418 1416 1413 1410 1407 1402 1398 1395 1392 1389 1386 1382 1378 1375
1444 1445 1446 1447 1448 1448 1449 1449 1449 1448 1448 1447 1445 1444 1442 1441 1440 1439 1437 1434 1432 1430 1428 1427 1425 1423 1421 1418 1416 1414 1412 1409 1405 1403 1399 1395 1391 1389 1386 1382 1379 1375 1370
1442 1443 1443 1444 1445 1445 1446 1445 1445 1445 1444 1443 1442 1440 1439 1437 1436 1434 1433 1430 1428 1426 1424 1422 1420 1418 1416 1413 1411 1409 1407 1404 1402 1400 1395 1391 1388 1385 1382 1378 1375 1372 1368
1439 1440 1441 1441 1442 1442 1442 1442 1442 1441 1440 1439 1438 1436 1435 1433 1432 1430 1428 1426 1424 1422 1420 1418 1415 1413 1411 1409 1406 1403 1401 1399 1397 1394 1391 1387 1384 1381 1378 1376 1372 1368 1365
1437 1438 1438 1438 1439 1439 1439 1439 1439 1438 1437 1436 1434 1433 1431 1429 1428 1426 1424 1422 1420 1418 1416 1414 1411 1409 1407 1405 1402 1399 1395 1393 1391 1389 1386 1383 1380 1377 1374 1372 1368 1365 1361
1435 1435 1436 1436 1436 1436 1437 1436 1436 1435 1434 1433 1431 1429 1428 1426 1424 1423 1421 1418 1416 1414 1412 1410 1408 1405 1403 1401 1398 1395 1391 1388 1386 1383 1380 1377 1375 1373 1371 1369 1366 1363 1360
1432 1433 1434 1434 1434 1434 1434 1434 1433 1432 1431 1430 1428 1426 1425 1423 1421 1419 1417 1415 1413 1410 1408 1405 1403 1401 1399 1397 1395 1391 1388 1386 1382 1379 1376 1374 1372 1369 1367 1365 1364 1362 1359
1430 1431 1431 1432 1432 1432 1431 1431 1430 1429 1428 1426 1425 1423 1421 1420 1418 1416 1414 1412 1410 1408 1405 1402 1400 1398 1396 1393 1391 1388 1386 1383 1380 1376 1374 1371 1369 1367 1365 1363 1361 1359 1357
1428 1429 1429 1430 1430 1430 1429 1428 1427 1426 1425 1423 1422 1420 1418 1417 1415 1413 1411 1410 1407 1405 1403 1400 1398 1396 1393 1390 1388 1386 1383 1380 1377 1374 1372 1370 1368 1366 1363 1361 1359 1357 1356
1427 1427 1427 1427 1427 1427 1427 1426 1425 1424 1423 1421 1419 1417 1415 1413 1412 1410 1408 1407 1405 1403 1400 1398 1396 1393 1391 1388 1386 1383 1381 1378 1376 1373 1371 1369 1367 1364 1362 1360 1358 1356 1355
1425 1425 1425 1425 1425 1425 1425 1424 1423 1422 1421 1419 1417 1416 1413 1411 1409 1408 1406 1404 1402 1400 1398 1396 1393 1391 1388 1386 1384 1381 1379 1377 1375 1372 1370 1368 1365 1363 1361 1359 1357 1356 1354
1423 1423 1423 1424 1423 1423 1423 1422 1421 1421 1419 1418 1416 1414 1412 1410 1408 1406 1404 1403 1400 1399 1396 1393 1391 1389 1387 1384 1382 1380 1378 1376 1374 1372 1369 1367 1365 1363 1361 1359 1357 1356 1354
1422 1422 1422 1422 1422 1421 1421 1420 1419 1418 1417 1416 1414 1412 1410 1408 1406 1404 1403 1401 1399 1397 1394 1392 1390 1388 1386 1384 1381 1379 1377 1375 1373 1371 1369 1367 1365 1363 1361 1359 1358 1357 1355
1420 1420 1420 1420 1420 1420 1419 1419 1418 1416 1414 1413 1412 1410 1409 1407 1405 1403 1401 1399 1397 1395 1393 1391 1389 1387 1385 1383 1381 1379 1376 1374 1372 1370 1368 1366 1365 1363 1361 1360 1359 1357 1356
1419 1419 1419 1419 1419 1419 1418 1417 1416 1415 1413 1412 1410 1409 1407 1405 1404 1402 1400 1398 1395 1394 1392 1390 1388 1386 1384 1382 1380 1378 1376 1374 1372 1370 1368 1366 1364 1363 1362 1360 1359 1359 1357
1419 1419 1419 1419 1418 1417 1417 1416 1415 1413 1412 1410 1409 1407 1405 1404 1402 1400 1399 1397 1395 1393 1391 1389 1387 1385 1383 1381 1379 1377 1375 1373 1371 1369 1367 1366 1364 1363 1362 1361 1360 1359 1358
1419 1419 1418 1418 1417 1416 1415 1415 1413 1412 1410 1409 1407 1406 1405 1403 1401 1399 1397 1396 1394 1392 1390 1388 1386 1384 1382 1380 1378 1376 1374 1372 1370 1368 1367 1365 1364 1363 1362 1361 1361 1360 1360
1418 1418 1417 1417 1416 1415 1414 1413 1412 1411 1409 1407 1406 1405 1403 1402 1400 1398 1396 1394 1392 1390 1389 1386 1384 1382 1380 1379 1377 1375 1373 1371 1369 1368 1366 1365 1364 1363 1363 1362 1362 1361 1361
1417 1417 1416 1416 1415 1414 1413 1412 1411 1409 1407 1406 1404 1403 1401 1400 1398 1397 1395 1393 1391 1389 1387 1385 1383 1381 1379 1377 1376 1374 1372 1370 1369 1367 1366 1365 1364 1364 1363 1363 1362 1362 1362
1416 1416 1415 1414 1414 1413 1412 1410 1409 1407 1406 1404 1403 1401 1400 1398 1397 1395 1393 1391 1389 1387 1385 1383 1381 1379 1378 1376 1374 1373 1371 1369 1368 1367 1366 1365 1365 1364 1364 1364 1363 1363 1363
1415 1415 1414 1413 1412 1411 1410 1409 1407 1406 1404 1403 1401 1400 1398 1396 1395 1393 1391 1390 1388 1385 1383 1382 1380 1378 1377 1375 1373 1371 1370 1369 1368 1367 1366 1366 1365 1365 1365 1365 1364 1364 1364
1414 1413 1413 1412 1411 1410 1408 1407 1405 1404 1402 1401 1400 1398 1397 1395 1393 1392 1390 1388 1386 1384 1382 1380 1379 1377 1376 1374 1372 1371 1369 1368 1367 1366 1366 1366 1366 1365 1365 1365 1365 1365 1365